| time (UTC) | temp F | wind direction | speed MPH | gust MPH | rain 1hr in | rain 24hr in | rain mn in | humidity % | barometer mb |
| 20260504194549 | 87 | 130 | 2.0 | 9.0 | 0.00 | 0.00 | 0.00 | 20 | 1002.4 |
| 20260504194044 | 87 | 116 | 5.0 | 11.0 | 0.00 | 0.00 | 0.00 | 20 | 1002.2 |
| 20260504193541 | 86 | 89 | 11.0 | 17.0 | 0.00 | 0.00 | 0.00 | 21 | 1002.5 |
| 20260504193039 | 86 | 89 | 11.0 | 11.0 | 0.00 | 0.00 | 0.00 | 21 | 1002.5 |
| 20260504192537 | 86 | 91 | 7.0 | 11.0 | 0.00 | 0.00 | 0.00 | 22 | 1002.4 |
| 20260504192035 | 85 | 92 | 9.0 | 10.0 | 0.00 | 0.00 | 0.00 | 22 | 1002.7 |
| 20260504191533 | 86 | 72 | 7.0 | 14.0 | 0.00 | 0.00 | 0.00 | 21 | 1002.9 |
| 20260504191029 | 86 | 77 | 4.0 | 9.0 | 0.00 | 0.00 | 0.00 | 23 | 1002.7 |
| 20260504190525 | 86 | 105 | 4.0 | 9.0 | 0.00 | 0.00 | 0.00 | 23 | 1002.9 |
| 20260504190021 | 85 | 87 | 5.0 | 6.0 | 0.00 | 0.00 | 0.00 | 21 | 1002.9 |
| 20260504185518 | 84 | 133 | 4.0 | 7.0 | 0.00 | 0.00 | 0.00 | 22 | 1003.0 |
| 20260504185015 | 85 | 63 | 6.0 | 8.0 | 0.00 | 0.00 | 0.00 | 21 | 1003.3 |
| 20260504184510 | 85 | 76 | 1.0 | 11.0 | 0.00 | 0.00 | 0.00 | 21 | 1003.5 |
| 20260504184006 | 85 | 63 | 6.0 | 13.0 | 0.00 | 0.00 | 0.00 | 19 | 1003.4 |
| 20260504183503 | 85 | 118 | 8.0 | 16.0 | 0.00 | 0.00 | 0.00 | 20 | 1003.4 |
| 20260504183001 | 85 | 78 | 6.0 | 8.0 | 0.00 | 0.00 | 0.00 | 22 | 1003.3 |
| 20260504182458 | 84 | 91 | 4.0 | 7.0 | 0.00 | 0.00 | 0.00 | 22 | 1003.4 |
| 20260504181955 | 86 | 164 | 2.0 | 9.0 | 0.00 | 0.00 | 0.00 | 23 | 1003.4 |
| 20260504181452 | 86 | 96 | 3.0 | 10.0 | 0.00 | 0.00 | 0.00 | 21 | 1003.4 |
| 20260504180951 | 85 | 75 | 2.0 | 9.0 | 0.00 | 0.00 | 0.00 | 22 | 1003.6 |
| 20260504180449 | 85 | 103 | 5.0 | 7.0 | 0.00 | 0.00 | 0.00 | 21 | 1003.6 |
| 20260504175947 | 86 | 59 | 2.0 | 6.0 | 0.00 | 0.00 | 0.00 | 21 | 1003.5 |
| 20260504175444 | 84 | 77 | 5.0 | 8.0 | 0.00 | 0.00 | 0.00 | 21 | 1003.6 |
| 20260504174942 | 82 | 89 | 9.0 | 14.0 | 0.00 | 0.00 | 0.00 | 22 | 1003.5 |
| 20260504174439 | 83 | 83 | 5.0 | 7.0 | 0.00 | 0.00 | 0.00 | 22 | 1003.7 |
| 20260504173936 | 84 | 53 | 5.0 | 8.0 | 0.00 | 0.00 | 0.00 | 22 | 1003.8 |
| 20260504173432 | 84 | 85 | 6.0 | 9.0 | 0.00 | 0.00 | 0.00 | 26 | 1003.5 |
| 20260504172930 | 85 | 82 | 3.0 | 9.0 | 0.00 | 0.00 | 0.00 | 23 | 1003.7 |
| 20260504172426 | 84 | 81 | 5.0 | 8.0 | 0.00 | 0.00 | 0.00 | 26 | 1003.7 |
| 20260504171922 | 82 | 112 | 2.0 | 6.0 | 0.00 | 0.00 | 0.00 | 29 | 1003.9 |
| 20260504171420 | 85 | 73 | 9.0 | 10.0 | 0.00 | 0.00 | 0.00 | 27 | 1003.9 |
| 20260504170917 | 83 | 104 | 1.0 | 2.0 | 0.00 | 0.00 | 0.00 | 28 | 1004.0 |
| 20260504170413 | 82 | 90 | 3.0 | 8.0 | 0.00 | 0.00 | 0.00 | 28 | 1004.0 |
| 20260504160332 | 80 | 126 | 0.0 | 3.0 | 0.00 | 0.00 | 0.00 | 31 | 1003.9 |
| 20260504150756 | 71 | 186 | 1.0 | 2.0 | 0.00 | 0.00 | 0.00 | 40 | 1003.9 |
| 20260504150253 | 70 | 178 | 1.0 | 2.0 | 0.00 | 0.00 | 0.00 | 41 | 1003.9 |
| 20260504141223 | 64 | 239 | 3.0 | 5.0 | 0.00 | 0.00 | 0.00 | 45 | 1004.0 |
| 20260504140720 | 64 | 232 | 3.0 | 6.0 | 0.00 | 0.00 | 0.00 | 46 | 1003.7 |
| 20260504140215 | 63 | 232 | 0.0 | 6.0 | 0.00 | 0.00 | 0.00 | 47 | 1003.8 |
| 20260504130644 | 57 | 238 | 0.0 | 0.0 | 0.00 | 0.00 | 0.00 | 52 | 1003.8 |
| 20260504130140 | 57 | 277 | 0.0 | 2.0 | 0.00 | 0.00 | 0.00 | 52 | 1003.8 |
| 20260504120104 | 57 | 259 | 0.0 | 6.0 | 0.00 | 0.00 | 0.00 | 54 | 1003.5 |
| 20260504110532 | 59 | 268 | 0.0 | 0.0 | 0.00 | 0.00 | 0.00 | 53 | 1003.3 |
| 20260504100448 | 59 | 242 | 0.0 | 0.0 | 0.00 | 0.00 | 0.00 | 53 | 1003.7 |
| 20260504081841 | 63 | 186 | 0.0 | 2.0 | 0.00 | 0.00 | 0.00 | 47 | 1004.5 |
| 20260504081338 | 63 | 284 | 1.0 | 2.0 | 0.00 | 0.00 | 0.00 | 47 | 1004.5 |
| 20260504080833 | 63 | 208 | 0.0 | 0.0 | 0.00 | 0.00 | 0.00 | 47 | 1004.5 |
| 20260504080331 | 63 | 238 | 0.0 | 0.0 | 0.00 | 0.00 | 0.00 | 46 | 1004.7 |
| 20260504070258 | 64 | 233 | 2.0 | 5.0 | 0.00 | 0.00 | 0.00 | 44 | 1004.7 |
| 20260504060219 | 66 | 187 | 1.0 | 3.0 | 0.00 | 0.00 | 0.00 | 40 | 1005.0 |
| 20260504050646 | 67 | 221 | 2.0 | 3.0 | 0.00 | 0.00 | 0.00 | 39 | 1005.3 |
| 20260504050143 | 67 | 167 | 1.0 | 3.0 | 0.00 | 0.00 | 0.00 | 38 | 1005.3 |
| 20260504045641 | 67 | 105 | 2.0 | 5.0 | 0.00 | 0.00 | 0.00 | 38 | 1005.3 |
| 20260504045140 | 67 | 175 | 0.0 | 3.0 | 0.00 | 0.00 | 0.00 | 38 | 1005.4 |
| 20260504044638 | 67 | 183 | 1.0 | 2.0 | 0.00 | 0.00 | 0.00 | 38 | 1005.4 |
| 20260504044135 | 68 | 214 | 2.0 | 3.0 | 0.00 | 0.00 | 0.00 | 37 | 1005.5 |
| 20260504043632 | 68 | 204 | 2.0 | 7.0 | 0.00 | 0.00 | 0.00 | 37 | 1005.5 |
| 20260504043129 | 68 | 192 | 2.0 | 7.0 | 0.00 | 0.00 | 0.00 | 36 | 1005.6 |
| 20260504042626 | 69 | 228 | 2.0 | 6.0 | 0.00 | 0.00 | 0.00 | 36 | 1005.5 |
| 20260504042123 | 69 | 204 | 2.0 | 6.0 | 0.00 | 0.00 | 0.00 | 35 | 1005.5 |
| 20260504041619 | 69 | 126 | 1.0 | 6.0 | 0.00 | 0.00 | 0.00 | 35 | 1005.5 |
| 20260504041115 | 70 | 190 | 2.0 | 5.0 | 0.00 | 0.00 | 0.00 | 34 | 1005.8 |
| 20260504040613 | 71 | 187 | 3.0 | 7.0 | 0.00 | 0.00 | 0.00 | 34 | 1005.7 |
| 20260504040109 | 71 | 249 | 6.0 | 9.0 | 0.00 | 0.00 | 0.00 | 33 | 1005.8 |
| 20260504035606 | 71 | 196 | 1.0 | 6.0 | 0.00 | 0.00 | 0.00 | 33 | 1005.7 |
| 20260504035103 | 71 | 209 | 2.0 | 9.0 | 0.00 | 0.00 | 0.00 | 32 | 1005.9 |
| 20260504034600 | 72 | 188 | 3.0 | 5.0 | 0.00 | 0.00 | 0.00 | 32 | 1005.9 |
| 20260504034057 | 72 | 190 | 0.0 | 2.0 | 0.00 | 0.00 | 0.00 | 32 | 1005.8 |
| 20260504033555 | 72 | 207 | 2.0 | 7.0 | 0.00 | 0.00 | 0.00 | 31 | 1005.8 |
| 20260504033052 | 72 | 175 | 1.0 | 7.0 | 0.00 | 0.00 | 0.00 | 30 | 1005.9 |
| 20260504032549 | 73 | 190 | 1.0 | 3.0 | 0.00 | 0.00 | 0.00 | 30 | 1005.7 |
| 20260504032046 | 73 | 211 | 2.0 | 3.0 | 0.00 | 0.00 | 0.00 | 30 | 1005.8 |
| 20260504031543 | 73 | 172 | 3.0 | 9.0 | 0.00 | 0.00 | 0.00 | 30 | 1005.8 |
| 20260504031039 | 72 | 144 | 2.0 | 7.0 | 0.00 | 0.00 | 0.00 | 30 | 1005.5 |
| 20260504030537 | 71 | 203 | 2.0 | 7.0 | 0.00 | 0.00 | 0.00 | 31 | 1005.5 |
| 20260504030032 | 71 | 202 | 2.0 | 3.0 | 0.00 | 0.00 | 0.00 | 30 | 1005.8 |
| 20260504025530 | 71 | 136 | 0.0 | 0.0 | 0.00 | 0.00 | 0.00 | 30 | 1005.7 |
| 20260504025026 | 71 | 237 | 2.0 | 6.0 | 0.00 | 0.00 | 0.00 | 30 | 1005.7 |
| 20260504024523 | 70 | 177 | 0.0 | 5.0 | 0.00 | 0.00 | 0.00 | 31 | 1005.5 |
| 20260504024020 | 70 | 174 | 1.0 | 3.0 | 0.00 | 0.00 | 0.00 | 32 | 1005.6 |
| 20260504023517 | 70 | 185 | 0.0 | 2.0 | 0.00 | 0.00 | 0.00 | 32 | 1005.5 |
| 20260504023013 | 70 | 238 | 2.0 | 3.0 | 0.00 | 0.00 | 0.00 | 31 | 1005.8 |
| 20260504022509 | 70 | 155 | 1.0 | 2.0 | 0.00 | 0.00 | 0.00 | 31 | 1005.3 |
| 20260504022006 | 71 | 199 | 2.0 | 3.0 | 0.00 | 0.00 | 0.00 | 31 | 1005.8 |
| 20260504021503 | 71 | 157 | 0.0 | 1.0 | 0.00 | 0.00 | 0.00 | 31 | 1005.5 |
| 20260504021000 | 71 | 164 | 1.0 | 1.0 | 0.00 | 0.00 | 0.00 | 31 | 1005.5 |
| 20260504020456 | 71 | 161 | 0.0 | 0.0 | 0.00 | 0.00 | 0.00 | 30 | 1005.4 |
| 20260504015953 | 72 | 157 | 0.0 | 0.0 | 0.00 | 0.00 | 0.00 | 30 | 1005.6 |
| 20260504015449 | 72 | 188 | 0.0 | 0.0 | 0.00 | 0.00 | 0.00 | 30 | 1005.5 |
| 20260504014945 | 72 | 154 | 0.0 | 1.0 | 0.00 | 0.00 | 0.00 | 30 | 1005.3 |
| 20260504014442 | 73 | 164 | 0.0 | 1.0 | 0.00 | 0.00 | 0.00 | 29 | 1005.5 |
| 20260504013938 | 73 | 182 | 0.0 | 2.0 | 0.00 | 0.00 | 0.00 | 29 | 1005.4 |
| 20260504013437 | 74 | 184 | 0.0 | 1.0 | 0.00 | 0.00 | 0.00 | 29 | 1005.3 |
| 20260504012933 | 74 | 162 | 1.0 | 2.0 | 0.00 | 0.00 | 0.00 | 28 | 1005.3 |
| 20260504012431 | 75 | 164 | 0.0 | 2.0 | 0.00 | 0.00 | 0.00 | 27 | 1005.5 |
| 20260504011928 | 76 | 167 | 0.0 | 1.0 | 0.00 | 0.00 | 0.00 | 26 | 1005.5 |
| 20260504011425 | 77 | 164 | 0.0 | 1.0 | 0.00 | 0.00 | 0.00 | 25 | 1005.6 |
| 20260504010920 | 78 | 181 | 0.0 | 0.0 | 0.00 | 0.00 | 0.00 | 24 | 1005.5 |
| 20260504010417 | 78 | 203 | 0.0 | 0.0 | 0.00 | 0.00 | 0.00 | 24 | 1005.3 |
| 20260504005913 | 79 | 168 | 1.0 | 1.0 | 0.00 | 0.00 | 0.00 | 23 | 1005.8 |
| 20260504005410 | 80 | 174 | 0.0 | 2.0 | 0.00 | 0.00 | 0.00 | 23 | 1005.5 |
| 20260504004908 | 80 | 193 | 0.0 | 0.0 | 0.00 | 0.00 | 0.00 | 22 | 1005.6 |
| 20260504004405 | 80 | 160 | 2.0 | 5.0 | 0.00 | 0.00 | 0.00 | 22 | 1005.7 |
| 20260504003902 | 81 | 187 | 2.0 | 3.0 | 0.00 | 0.00 | 0.00 | 21 | 1005.6 |
| 20260504003358 | 81 | 297 | 2.0 | 5.0 | 0.00 | 0.00 | 0.00 | 21 | 1005.7 |
| 20260504002855 | 81 | 257 | 3.0 | 3.0 | 0.00 | 0.00 | 0.00 | 22 | 1005.7 |
| 20260504002352 | 81 | 159 | 2.0 | 6.0 | 0.00 | 0.00 | 0.00 | 22 | 1005.6 |
| 20260504001849 | 81 | 171 | 0.0 | 5.0 | 0.00 | 0.00 | 0.00 | 22 | 1005.8 |
| 20260504001347 | 81 | 177 | 2.0 | 3.0 | 0.00 | 0.00 | 0.00 | 21 | 1006.0 |
| 20260504000843 | 81 | 261 | 5.0 | 6.0 | 0.00 | 0.00 | 0.00 | 20 | 1005.8 |
| 20260504000340 | 82 | 159 | 0.0 | 0.0 | 0.00 | 0.00 | 0.00 | 21 | 1006.1 |
| 20260503235838 | 82 | 196 | 0.0 | 0.0 | 0.00 | 0.00 | 0.00 | 20 | 1006.1 |
| 20260503235335 | 82 | 184 | 0.0 | 1.0 | 0.00 | 0.00 | 0.00 | 20 | 1006.2 |
| 20260503234833 | 82 | 194 | 0.0 | 6.0 | 0.00 | 0.00 | 0.00 | 19 | 1006.2 |
| 20260503234330 | 83 | 25 | 2.0 | 8.0 | 0.00 | 0.00 | 0.00 | 19 | 1006.3 |
| 20260503233828 | 84 | 195 | 0.0 | 7.0 | 0.00 | 0.00 | 0.00 | 19 | 1006.3 |
| 20260503233324 | 86 | 210 | 3.0 | 6.0 | 0.00 | 0.00 | 0.00 | 18 | 1006.8 |
| 20260503232820 | 85 | 247 | 0.0 | 8.0 | 0.00 | 0.00 | 0.00 | 17 | 1006.5 |
| 20260503232318 | 85 | 206 | 0.0 | 5.0 | 0.00 | 0.00 | 0.00 | 18 | 1006.7 |
| 20260503231816 | 85 | 202 | 0.0 | 8.0 | 0.00 | 0.00 | 0.00 | 18 | 1006.4 |
| 20260503231312 | 86 | 203 | 0.0 | 0.0 | 0.00 | 0.00 | 0.00 | 18 | 1006.5 |
| 20260503230808 | 86 | 233 | 2.0 | 5.0 | 0.00 | 0.00 | 0.00 | 17 | 1006.8 |
| 20260503230306 | 86 | 209 | 1.0 | 2.0 | 0.00 | 0.00 | 0.00 | 17 | 1006.9 |
| 20260503225803 | 86 | 207 | 2.0 | 7.0 | 0.00 | 0.00 | 0.00 | 17 | 1007.0 |
| 20260503225258 | 85 | 239 | 4.0 | 11.0 | 0.00 | 0.00 | 0.00 | 17 | 1007.1 |
| 20260503224755 | 84 | 233 | 0.0 | 7.0 | 0.00 | 0.00 | 0.00 | 18 | 1007.2 |
| 20260503224253 | 84 | 292 | 1.0 | 5.0 | 0.00 | 0.00 | 0.00 | 18 | 1007.2 |
| 20260503223750 | 84 | 270 | 1.0 | 14.0 | 0.00 | 0.00 | 0.00 | 17 | 1006.9 |
| 20260503223248 | 85 | 265 | 5.0 | 9.0 | 0.00 | 0.00 | 0.00 | 17 | 1007.1 |
| 20260503222744 | 85 | 265 | 5.0 | 9.0 | 0.00 | 0.00 | 0.00 | 17 | 1007.1 |
| 20260503222242 | 86 | 247 | 0.0 | 10.0 | 0.00 | 0.00 | 0.00 | 17 | 1007.3 |
| 20260503221740 | 86 | 257 | 1.0 | 7.0 | 0.00 | 0.00 | 0.00 | 17 | 1007.4 |
| 20260503221237 | 87 | 208 | 0.0 | 5.0 | 0.00 | 0.00 | 0.00 | 16 | 1007.6 |
| 20260503220734 | 88 | 290 | 3.0 | 6.0 | 0.00 | 0.00 | 0.00 | 16 | 1007.5 |
| 20260503220231 | 87 | 257 | 5.0 | 9.0 | 0.00 | 0.00 | 0.00 | 15 | 1007.4 |
| 20260503215727 | 87 | 210 | 2.0 | 3.0 | 0.00 | 0.00 | 0.00 | 16 | 1007.6 |
| 20260503215225 | 87 | 225 | 0.0 | 8.0 | 0.00 | 0.00 | 0.00 | 15 | 1007.6 |
| 20260503214723 | 88 | 308 | 3.0 | 6.0 | 0.00 | 0.00 | 0.00 | 14 | 1007.9 |
| 20260503214219 | 88 | 214 | 8.0 | 11.0 | 0.00 | 0.00 | 0.00 | 14 | 1007.6 |
| 20260503213717 | 88 | 220 | 2.0 | 5.0 | 0.00 | 0.00 | 0.00 | 16 | 1007.8 |
| 20260503213214 | 88 | 312 | 2.0 | 7.0 | 0.00 | 0.00 | 0.00 | 15 | 1007.9 |
| 20260503212711 | 87 | 225 | 4.0 | 11.0 | 0.00 | 0.00 | 0.00 | 15 | 1008.0 |
| 20260503212209 | 87 | 218 | 3.0 | 13.0 | 0.00 | 0.00 | 0.00 | 15 | 1008.0 |
| 20260503211706 | 87 | 203 | 0.0 | 7.0 | 0.00 | 0.00 | 0.00 | 16 | 1008.2 |
| 20260503211202 | 87 | 277 | 5.0 | 9.0 | 0.00 | 0.00 | 0.00 | 15 | 1008.1 |
| 20260503210658 | 87 | 178 | 1.0 | 6.0 | 0.00 | 0.00 | 0.00 | 15 | 1008.2 |
| 20260503210155 | 88 | 250 | 5.0 | 10.0 | 0.00 | 0.00 | 0.00 | 15 | 1008.5 |
| 20260503205650 | 87 | 282 | 5.0 | 8.0 | 0.00 | 0.00 | 0.00 | 14 | 1008.7 |
| 20260503205147 | 87 | 184 | 2.0 | 7.0 | 0.00 | 0.00 | 0.00 | 16 | 1008.8 |
| 20260503204643 | 87 | 177 | 0.0 | 0.0 | 0.00 | 0.00 | 0.00 | 16 | 1009.0 |
| 20260503204141 | 87 | 179 | 1.0 | 5.0 | 0.00 | 0.00 | 0.00 | 16 | 1009.0 |
| 20260503203638 | 87 | 229 | 1.0 | 9.0 | 0.00 | 0.00 | 0.00 | 16 | 1009.2 |
| 20260503203136 | 88 | 245 | 1.0 | 9.0 | 0.00 | 0.00 | 0.00 | 16 | 1009.1 |
| 20260503202633 | 87 | 327 | 5.0 | 11.0 | 0.00 | 0.00 | 0.00 | 16 | 1009.3 |
| 20260503202131 | 88 | 233 | 2.0 | 7.0 | 0.00 | 0.00 | 0.00 | 16 | 1009.2 |
| 20260503201629 | 87 | 292 | 2.0 | 10.0 | 0.00 | 0.00 | 0.00 | 17 | 1009.5 |
| 20260503201126 | 87 | 247 | 0.0 | 5.0 | 0.00 | 0.00 | 0.00 | 17 | 1009.3 |
| 20260503200622 | 87 | 285 | 6.0 | 13.0 | 0.00 | 0.00 | 0.00 | 17 | 1009.6 |
| 20260503200118 | 87 | 279 | 0.0 | 2.0 | 0.00 | 0.00 | 0.00 | 17 | 1009.8 |
| 20260503195615 | 88 | 318 | 3.0 | 9.0 | 0.00 | 0.00 | 0.00 | 17 | 1009.9 |
| 20260503195112 | 87 | 313 | 3.0 | 3.0 | 0.00 | 0.00 | 0.00 | 19 | 1009.8 |